DW8722 Weather Reports


time (UTC)temp
C
wind
direction
speed
KPH
gust
KPH
rain 1hr
cm
rain 24hr
cm
rain mn
cm
humidity
%
barometer
mb
20260902021819 31 105 1.6 4.8 0.00 0.00 0.00 53 1012.8
20260902015658 32 93 1.6 8.0 0.00 0.00 0.00 52 1012.4
20260902014702 32 84 3.2 9.7 0.00 0.00 0.00 51 1012.2
20260902012553 33 105 3.2 11.3 0.00 0.00 0.00 48 1012.0
20260902011550 33 112 3.2 9.7 0.00 0.00 0.00 47 1012.0
20260902010522 34 102 4.8 14.5 0.00 0.00 0.00 46 1011.9
20260902004339 35 88 4.8 16.1 0.00 0.00 0.00 44 1011.8
20260902002211 35 29 0.0 3.2 0.00 0.00 0.00 43 1011.9
20260902001200 35 75 0.0 1.6 0.00 0.00 0.00 42 1012.0
20260902000149 35 77 0.0 0.0 0.00 0.00 0.00 43 1012.1
20260901235153 35 77 0.0 0.0 0.00 0.00 0.00 43 1012.0
20260901234146 35 77 0.0 0.0 0.00 0.00 0.00 42 1012.1
20260901233207 36 77 0.0 4.8 0.00 0.00 0.00 42 1012.3
20260901232231 36 100 4.8 12.9 0.00 0.00 0.00 41 1012.3
20260901230111 36 101 4.8 16.1 0.00 0.00 0.00 40 1012.2
20260901225038 36 67 0.0 9.7 0.00 0.00 0.00 41 1012.3
20260901224025 35 71 0.0 3.2 0.00 0.00 0.00 42 1012.2
20260901223022 35 100 4.8 11.3 0.00 0.00 0.00 42 1012.3
20260901222019 36 98 3.2 11.3 0.00 0.00 0.00 42 1012.3
20260901221028 36 78 1.6 12.9 0.00 0.00 0.00 42 1012.4
20260901220051 36 88 3.2 17.7 0.00 0.00 0.00 40 1012.4
20260901213901 36 112 1.6 19.3 0.00 0.00 0.00 39 1012.5
20260901212849 36 96 6.4 19.3 0.00 0.00 0.00 39 1012.5
20260901211831 36 159 6.4 16.1 0.00 0.00 0.00 40 1012.7
20260901205700 37 86 6.4 17.7 0.00 0.00 0.00 39 1012.8
20260901204721 37 39 0.0 12.9 0.00 0.00 0.00 39 1013.0
20260901203737 37 214 4.8 0.0 0.00 0.00 0.00 39 1013.1
20260901201643 37 74 6.4 17.7 0.00 0.00 0.00 41 1013.3
20260901194435 36 72 8.0 14.5 0.00 0.00 0.00 42 1013.7
20260901193417 36 87 6.4 14.5 0.00 0.00 0.00 43 1013.7
20260901192432 36 355 4.8 17.7 0.00 0.00 0.00 43 1013.9
20260901190356 37 111 3.2 16.1 0.00 0.00 0.00 39 1014.2
20260901185409 37 79 4.8 14.5 0.00 0.00 0.00 42 1014.3
20260901184425 36 144 8.0 16.1 0.00 0.00 0.00 44 1014.5
20260901182307 36 107 6.4 17.7 0.00 0.00 0.00 44 1015.0
20260901180204 35 96 0.0 3.2 0.00 0.00 0.00 47 1015.5
20260901175214 35 79 0.0 9.7 0.00 0.00 0.00 49 1015.6
20260901174205 33 123 0.0 9.7 0.00 0.00 0.00 51 1015.8
20260901173134 33 118 0.0 0.0 0.00 0.00 0.00 52 1016.0
20260901172147 33 171 0.0 0.0 0.00 0.00 0.00 53 1016.1
20260901171204 33 87 0.0 0.0 0.00 0.00 0.00 53 1016.2
20260901164945 33 217 4.8 11.3 0.00 0.00 0.00 52 1016.3
20260901163927 33 182 0.0 4.8 0.00 0.00 0.00 52 1016.4
20260901155548 32 182 0.0 9.7 0.00 0.00 0.00 57 1016.6
20260901154518 32 164 1.6 11.3 0.00 0.00 0.00 58 1016.6
20260901153514 32 223 3.2 11.3 0.00 0.00 0.00 59 1016.6
20260901152523 31 221 0.0 11.3 0.00 0.00 0.00 60 1016.5
20260901151511 31 186 3.2 11.3 0.00 0.00 0.00 62 1016.6
20260901150522 31 233 1.6 11.3 0.00 0.00 0.00 63 1016.6
20260901144427 30 225 1.6 11.3 0.00 0.00 0.00 64 1016.7
20260901143444 30 169 4.8 11.3 0.00 0.00 0.00 65 1016.8
20260901142420 30 178 3.2 11.3 0.00 0.00 0.00 67 1016.7
20260901141445 29 180 1.6 12.9 0.00 0.00 0.00 68 1016.7
20260901135333 28 169 1.6 0.0 0.00 0.00 0.00 70 1016.7
20260901134329 27 146 0.0 0.0 0.00 0.00 0.00 72 1016.7
20260901133333 27 173 0.0 0.0 0.00 0.00 0.00 74 1016.7
20260901132355 26 155 0.0 0.0 0.00 0.00 0.00 75 1016.7
20260901131359 25 148 0.0 0.0 0.00 0.00 0.00 78 1016.7
20260901130416 25 127 0.0 0.0 0.00 0.00 0.00 80 1016.6
20260901125434 24 122 0.0 0.0 0.00 0.00 0.00 83 1016.5
20260901124443 23 122 0.0 0.0 0.00 0.00 0.00 83 1016.3
20260901123504 23 122 0.0 0.0 0.00 0.00 0.00 83 1016.1
20260901122511 23 122 0.0 0.0 0.00 0.00 0.00 82 1016.0
20260901121500 23 122 0.0 0.0 0.00 0.00 0.00 82 1015.9
20260901120433 23 122 0.0 0.0 0.00 0.00 0.00 82 1015.9
20260901115415 23 122 0.0 0.0 0.00 0.00 0.00 81 1015.7
20260901114400 23 122 0.0 0.0 0.00 0.00 0.00 81 1015.8
20260901113348 23 122 0.0 0.0 0.00 0.00 0.00 81 1015.7
20260901112326 23 122 0.0 0.0 0.00 0.00 0.00 79 1015.6
20260901111259 23 146 0.0 0.0 0.00 0.00 0.00 78 1015.4
20260901110319 23 146 0.0 0.0 0.00 0.00 0.00 78 1015.3
20260901105342 23 146 0.0 0.0 0.00 0.00 0.00 77 1015.3
20260901103304 24 146 0.0 0.0 0.00 0.00 0.00 76 1015.2
20260901102313 25 146 0.0 4.8 0.00 0.00 0.00 76 1015.2
20260901101330 25 150 0.0 4.8 0.00 0.00 0.00 76 1015.2
20260901100259 25 140 0.0 4.8 0.00 0.00 0.00 76 1015.1
20260901095249 24 144 1.6 4.8 0.00 0.00 0.00 76 1015.3
20260901094309 24 144 1.6 4.8 0.00 0.00 0.00 77 1015.3
20260901093246 24 128 0.0 3.2 0.00 0.00 0.00 77 1015.3
20260901092305 23 112 0.0 3.2 0.00 0.00 0.00 76 1015.3
20260901091305 23 101 0.0 0.0 0.00 0.00 0.00 76 1015.4
20260901085137 24 101 0.0 0.0 0.00 0.00 0.00 75 1015.3
20260901084141 24 102 0.0 0.0 0.00 0.00 0.00 75 1015.2
20260901083114 24 103 0.0 0.0 0.00 0.00 0.00 74 1015.2
20260901082116 24 104 0.0 0.0 0.00 0.00 0.00 73 1015.2
20260901081116 24 104 0.0 0.0 0.00 0.00 0.00 73 1015.0
20260901080118 24 105 0.0 0.0 0.00 0.00 0.00 72 1015.0
20260901075045 24 101 0.0 1.6 0.00 0.00 0.00 73 1015.1
20260901074105 25 101 0.0 0.0 0.00 0.00 0.00 71 1015.1
20260901073115 25 104 0.0 0.0 0.00 0.00 0.00 71 1014.9
20260901072109 25 106 0.0 0.0 0.00 0.00 0.00 70 1014.9
20260901071128 25 107 0.0 0.0 0.00 0.00 0.00 69 1014.9
20260901070121 25 107 0.0 0.0 0.00 0.00 0.00 69 1014.9
20260901065118 26 107 0.0 0.0 0.00 0.00 0.00 67 1014.9
20260901064101 26 107 0.0 0.0 0.00 0.00 0.00 65 1014.9
20260901063040 26 108 0.0 0.0 0.00 0.00 0.00 64 1014.9
20260901062025 27 108 0.0 0.0 0.00 0.00 0.00 63 1014.8
20260901061012 27 108 0.0 3.2 0.00 0.00 0.00 62 1014.7
20260901054919 27 119 1.6 6.4 0.00 0.00 0.00 62 1014.5
20260901053846 27 143 4.8 11.3 0.00 0.00 0.00 62 1014.4
20260901052831 27 123 3.2 11.3 0.00 0.00 0.00 62 1014.5
20260901051759 27 118 4.8 11.3 0.00 0.00 0.00 62 1014.5
20260901050737 26 121 3.2 11.3 0.00 0.00 0.00 63 1014.3
20260901045705 26 110 0.0 4.8 0.00 0.00 0.00 65 1014.2
20260901044719 26 115 0.0 3.2 0.00 0.00 0.00 66 1014.1
20260901043712 26 83 0.0 0.0 0.00 0.00 0.00 65 1014.1
20260901041545 26 83 0.0 0.0 0.00 0.00 0.00 63 1014.1
20260901040534 26 83 0.0 0.0 0.00 0.00 0.00 62 1014.1
20260901035536 27 83 0.0 0.0 0.00 0.00 0.00 61 1014.0
20260901034509 27 83 0.0 0.0 0.00 0.00 0.00 61 1014.1
20260901033523 27 83 0.0 0.0 0.00 0.00 0.00 59 1014.0
20260901032509 27 84 0.0 0.0 0.00 0.00 0.00 58 1013.9
20260901031438 28 84 0.0 0.0 0.00 0.00 0.00 56 1013.8
20260901030423 28 84 0.0 0.0 0.00 0.00 0.00 57 1013.8
20260901025418 28 84 0.0 0.0 0.00 0.00 0.00 57 1013.5
20260901024418 28 102 0.0 3.2 0.00 0.00 0.00 56 1013.4
20260901023354 28 104 0.0 1.6 0.00 0.00 0.00 55 1013.3
20260901022352 28 104 0.0 0.0 0.00 0.00 0.00 54 1013.1